Location: Observatorio Las Palmas
(29.0667°N, 110.9333°W)
Time: 18:39:56
(UTC-07:00)

Hubble Space Telescope - Visible Passes

Search period start: 30 July 2016 00:00
Search period end: 09 August 2016 00:00
Orbit: 539 x 543 km, 28.5° (Epoch: 29 July)

Date Brightness Start Highest point End Pass type
(mag) Time Alt. Az. Time Alt. Az. Time Alt. Az.
30 Jul 2.1 04:57:55 11° SW 05:01:18 28° SSE 05:04:53 10° E visible
31 Jul 1.8 04:48:43 16° SW 04:51:31 35° SSE 04:55:19 10° E visible
01 Aug 1.4 04:39:29 22° SW 04:41:45 42° SSE 04:45:41 10° E visible
02 Aug 1.1 04:30:15 29° SW 04:32:00 51° SSE 04:36:02 10° E visible
03 Aug 0.9 04:21:00 39° SW 04:22:16 60° SSE 04:26:21 10° E visible
04 Aug 0.7 04:11:46 53° SW 04:12:32 68° S 04:16:40 10° E visible
05 Aug 0.6 04:02:32 71° SSW 04:02:49 75° S 04:06:57 10° E visible
06 Aug 0.7 03:53:22 75° SE 03:53:22 75° SE 03:57:15 10° E visible
07 Aug 1.2 03:44:14 55° E 03:44:14 55° E 03:47:32 10° E visible
07 Aug 0.9 05:20:31 10° W 05:24:37 64° S 05:28:43 10° ESE visible
08 Aug 1.9 03:35:11 38° E 03:35:11 38° E 03:37:50 10° E visible
08 Aug 1.0 05:10:50 10° W 05:14:52 55° SSW 05:18:56 10° ESE visible
